DGRLG EDLP-EDDC

Flight info

Callsign DGRLG
Flight time N/A
Altitude 17000
Route GISDI1X GISDI DCT KATCE DCT OSKAN OSKAN4B
Aircraft DA42/L-BDGLORVWY/S

Departure

Time N/A
Airport Paderborn Lippstadt Airport (EDLP)

Arrival

Time 2026-05-08 21:17
Airport Dresden Airport (EDDC)
Time Latitude Longitude Altitude Speed Heading
2026-05-08 20:46 51.14136 11.11888 17185 ft 211 kts 95°
2026-05-08 20:47 51.14012 11.14232 17183 ft 212 kts 95°
2026-05-08 20:47 51.13889 11.16541 17184 ft 212 kts 95°
2026-05-08 20:47 51.13764 11.18876 17182 ft 212 kts 95°
2026-05-08 20:47 51.13639 11.21212 17182 ft 212 kts 95°
2026-05-08 20:48 51.13513 11.23550 17182 ft 212 kts 95°
2026-05-08 20:48 51.13387 11.25883 17181 ft 212 kts 95°
2026-05-08 20:48 51.13260 11.28215 17180 ft 212 kts 95°
2026-05-08 20:48 51.13133 11.30551 17180 ft 212 kts 95°
2026-05-08 20:49 51.13006 11.32882 17182 ft 212 kts 95°
2026-05-08 20:49 51.12878 11.35216 17182 ft 212 kts 95°
2026-05-08 20:49 51.12749 11.37549 17182 ft 212 kts 95°
2026-05-08 20:49 51.12621 11.39879 17182 ft 212 kts 95°
2026-05-08 20:50 51.12491 11.42214 17182 ft 212 kts 95°
2026-05-08 20:50 51.12361 11.44550 17182 ft 212 kts 95°
2026-05-08 20:50 51.12231 11.46882 17182 ft 212 kts 95°
2026-05-08 20:50 51.12100 11.49221 17182 ft 212 kts 95°
2026-05-08 20:51 51.11968 11.51559 17182 ft 212 kts 95°
2026-05-08 20:51 51.11836 11.53893 17182 ft 212 kts 95°
2026-05-08 20:51 51.11704 11.56228 17183 ft 212 kts 95°
2026-05-08 20:51 51.11571 11.58570 17183 ft 212 kts 95°
2026-05-08 20:52 51.11438 11.60903 17181 ft 212 kts 95°
2026-05-08 20:52 51.11308 11.63156 17182 ft 212 kts 95°
2026-05-08 20:52 51.11174 11.65493 17180 ft 212 kts 95°
2026-05-08 20:52 51.11040 11.67828 17181 ft 212 kts 95°
2026-05-08 20:53 51.10905 11.70158 17180 ft 212 kts 95°
2026-05-08 20:53 51.10769 11.72498 17180 ft 212 kts 95°
2026-05-08 20:53 51.10633 11.74838 17179 ft 212 kts 95°
2026-05-08 20:53 51.10496 11.77174 17179 ft 212 kts 95°
2026-05-08 20:54 51.10359 11.79508 17179 ft 212 kts 95°
2026-05-08 20:54 51.10222 11.81840 17180 ft 212 kts 95°
2026-05-08 20:54 51.10084 11.84176 17179 ft 212 kts 95°
2026-05-08 20:54 51.09945 11.86510 17184 ft 212 kts 95°
2026-05-08 20:55 51.09806 11.88847 17179 ft 212 kts 95°
2026-05-08 20:55 51.09667 11.91183 17179 ft 212 kts 95°
2026-05-08 20:55 51.09527 11.93519 17179 ft 212 kts 95°
2026-05-08 20:55 51.09386 11.95858 17179 ft 212 kts 95°
2026-05-08 20:56 51.09245 11.98196 17179 ft 212 kts 95°
2026-05-08 20:56 51.09104 12.00537 17179 ft 213 kts 95°
2026-05-08 20:56 51.08962 12.02875 17176 ft 213 kts 95°
2026-05-08 20:56 51.08819 12.05212 17176 ft 212 kts 95°
2026-05-08 20:57 51.08676 12.07554 17176 ft 212 kts 95°
2026-05-08 20:57 51.08535 12.09860 17178 ft 212 kts 96°
2026-05-08 20:57 51.08391 12.12198 17179 ft 213 kts 96°
2026-05-08 20:57 51.08247 12.14536 17179 ft 213 kts 96°
2026-05-08 20:58 51.08102 12.16878 17179 ft 213 kts 96°
2026-05-08 20:58 51.07957 12.19216 17180 ft 213 kts 96°
2026-05-08 20:58 51.07811 12.21552 17180 ft 213 kts 96°
2026-05-08 20:58 51.07665 12.23892 17181 ft 213 kts 96°
2026-05-08 20:59 51.07517 12.26236 17182 ft 213 kts 96°
2026-05-08 20:59 51.07370 12.28574 17181 ft 213 kts 96°
2026-05-08 20:59 51.07221 12.30942 17182 ft 213 kts 96°
2026-05-08 20:59 51.07075 12.33249 17183 ft 213 kts 96°
2026-05-08 21:00 51.06926 12.35592 17179 ft 213 kts 96°
2026-05-08 21:00 51.06777 12.37927 17182 ft 213 kts 96°
2026-05-08 21:00 51.06627 12.40269 17177 ft 213 kts 96°
2026-05-08 21:00 51.06477 12.42611 17177 ft 213 kts 96°
2026-05-08 21:01 51.06326 12.44953 17181 ft 213 kts 96°
2026-05-08 21:01 51.06175 12.47293 17182 ft 213 kts 96°
2026-05-08 21:01 51.06023 12.49630 17177 ft 208 kts 96°
2026-05-08 21:01 51.05875 12.51907 17058 ft 211 kts 96°
2026-05-08 21:02 51.05720 12.54286 16800 ft 223 kts 96°
2026-05-08 21:02 51.05556 12.56779 16507 ft 231 kts 96°
2026-05-08 21:02 51.05387 12.59345 16203 ft 236 kts 96°
2026-05-08 21:02 51.05216 12.61950 15890 ft 238 kts 96°
2026-05-08 21:03 51.05043 12.64581 15574 ft 240 kts 96°
2026-05-08 21:03 51.04868 12.67221 15256 ft 241 kts 96°
2026-05-08 21:03 51.04692 12.69864 14938 ft 241 kts 96°
2026-05-08 21:03 51.04515 12.72517 14618 ft 241 kts 96°
2026-05-08 21:04 51.04338 12.75161 14299 ft 241 kts 96°
2026-05-08 21:04 51.04160 12.77808 13978 ft 241 kts 96°
2026-05-08 21:04 51.03982 12.80444 13637 ft 239 kts 96°
2026-05-08 21:04 51.03865 12.82180 13423 ft 238 kts 96°
2026-05-08 21:05 51.03688 12.84787 13110 ft 236 kts 96°
2026-05-08 21:05 51.03512 12.87376 12794 ft 235 kts 96°
2026-05-08 21:05 51.03336 12.89945 12487 ft 234 kts 96°
2026-05-08 21:05 51.03160 12.92510 12177 ft 233 kts 96°
2026-05-08 21:06 51.02986 12.95050 11871 ft 231 kts 96°
2026-05-08 21:06 51.02812 12.97567 11561 ft 228 kts 96°
2026-05-08 21:06 51.02640 13.00067 11268 ft 227 kts 96°
2026-05-08 21:06 51.02467 13.02555 10967 ft 226 kts 96°
2026-05-08 21:07 51.02295 13.05026 10670 ft 225 kts 96°
2026-05-08 21:07 51.02123 13.07481 10374 ft 223 kts 96°
2026-05-08 21:07 51.01952 13.09930 10079 ft 222 kts 96°
2026-05-08 21:07 51.01781 13.12361 9766 ft 221 kts 96°
2026-05-08 21:08 51.01611 13.14775 9474 ft 219 kts 97°
2026-05-08 21:08 51.01442 13.17165 9186 ft 218 kts 97°
2026-05-08 21:08 51.01273 13.19547 8898 ft 216 kts 97°
2026-05-08 21:08 51.01105 13.21916 8614 ft 215 kts 97°
2026-05-08 21:09 51.00937 13.24272 8331 ft 214 kts 97°
2026-05-08 21:09 51.00769 13.26618 8049 ft 214 kts 97°
2026-05-08 21:09 51.00602 13.28952 7767 ft 212 kts 97°
2026-05-08 21:09 51.00435 13.31277 7488 ft 212 kts 97°
2026-05-08 21:10 51.00268 13.33597 7211 ft 211 kts 96°
2026-05-08 21:10 51.00102 13.35903 6933 ft 210 kts 97°
2026-05-08 21:10 50.99933 13.38207 6644 ft 209 kts 97°
2026-05-08 21:10 50.99766 13.40495 6367 ft 208 kts 97°
2026-05-08 21:11 50.99600 13.42772 6086 ft 207 kts 97°
2026-05-08 21:11 50.99435 13.45032 5808 ft 205 kts 96°
2026-05-08 21:11 50.99272 13.47271 5541 ft 204 kts 96°
2026-05-08 21:11 50.99107 13.49511 5150 ft 205 kts 96°
2026-05-08 21:12 50.98942 13.51734 4817 ft 200 kts 96°
2026-05-08 21:12 50.98784 13.53909 4539 ft 198 kts 95°
2026-05-08 21:12 50.98937 13.56055 4275 ft 195 kts 70°
2026-05-08 21:12 50.99639 13.57857 4020 ft 192 kts 45°
2026-05-08 21:13 51.00630 13.59225 3838 ft 188 kts 40°
2026-05-08 21:13 51.01622 13.60577 3585 ft 188 kts 41°
2026-05-08 21:13 51.02610 13.61935 3330 ft 188 kts 41°
2026-05-08 21:13 51.03596 13.63290 3071 ft 187 kts 41°
2026-05-08 21:14 51.04582 13.64644 2818 ft 187 kts 42°
2026-05-08 21:14 51.05565 13.65989 2562 ft 186 kts 42°
2026-05-08 21:14 51.06545 13.67334 2306 ft 186 kts 42°
2026-05-08 21:14 51.07514 13.68665 2051 ft 178 kts 42°
2026-05-08 21:15 51.08368 13.69846 1701 ft 145 kts 43°
2026-05-08 21:15 51.09061 13.70783 1620 ft 116 kts 41°
2026-05-08 21:15 51.09606 13.71525 1481 ft 95 kts 41°
2026-05-08 21:15 51.10086 13.72186 1359 ft 89 kts 40°
2026-05-08 21:16 51.10547 13.72827 1259 ft 88 kts 40°
2026-05-08 21:16 51.11020 13.73470 1137 ft 92 kts 38°
2026-05-08 21:16 51.11492 13.74131 1029 ft 92 kts 41°
2026-05-08 21:16 51.11978 13.74794 889 ft 93 kts 39°
2026-05-08 21:17 51.12459 13.75454 769 ft 92 kts 39°
2026-05-08 21:17 51.12884 13.76041 704 ft 59 kts 42°
2026-05-08 21:17 51.13125 13.76372 703 ft 36 kts 41°
2026-05-08 21:17 51.13286 13.76596 707 ft 26 kts 40°
2026-05-08 21:18 51.13360 13.76752 705 ft 14 kts 112°
2026-05-08 21:18 51.13300 13.76872 701 ft 12 kts 131°
2026-05-08 21:18 51.13293 13.76885 701 ft 0 kts 128°
2026-05-08 21:19 51.13287 13.76896 702 ft 5 kts 130°
2026-05-08 21:19 51.13263 13.76941 702 ft 6 kts 134°
2026-05-08 21:19 51.13223 13.76971 703 ft 7 kts 188°
2026-05-08 21:19 51.13178 13.76926 703 ft 8 kts 220°
2026-05-08 21:20 51.13132 13.76863 705 ft 9 kts 222°
2026-05-08 21:20 51.13083 13.76794 705 ft 10 kts 220°
2026-05-08 21:20 51.13031 13.76723 705 ft 10 kts 220°
2026-05-08 21:20 51.12976 13.76647 705 ft 11 kts 221°
2026-05-08 21:21 51.12920 13.76568 703 ft 11 kts 219°
2026-05-08 21:21 51.12861 13.76488 702 ft 11 kts 221°
2026-05-08 21:21 51.12792 13.76395 699 ft 17 kts 222°
2026-05-08 21:21 51.12684 13.76248 705 ft 21 kts 221°
2026-05-08 21:22 51.12584 13.76107 705 ft 18 kts 220°
2026-05-08 21:22 51.12496 13.75987 705 ft 16 kts 220°
2026-05-08 21:22 51.12427 13.75939 698 ft 10 kts 125°
2026-05-08 21:22 51.12380 13.76027 700 ft 11 kts 133°
2026-05-08 21:23 51.12323 13.75988 705 ft 8 kts 217°
2026-05-08 21:23 51.12296 13.76004 705 ft 2 kts 123°
2026-05-08 21:23 51.12291 13.76021 705 ft 1 kts 114°
2026-05-08 21:23 51.12291 13.76031 705 ft 0 kts 38°
2026-05-08 21:24 51.12292 13.76033 705 ft 0 kts 39°